TimePST,TemperatureF,Dew PointF,Humidity,Sea Level PressureIn,VisibilityMPH,Wind Direction,Wind SpeedMPH,Gust SpeedMPH,PrecipitationIn,Events,Conditions,WindDirDegrees,DateUTC
12:53 AM,45.0,37.9,76,30.34,10.0,WNW,10.4,-,N/A,,Clear,300,2013-02-12 08:53:00
1:53 AM,45.0,37.0,74,30.34,10.0,West,9.2,-,N/A,,Scattered Clouds,270,2013-02-12 09:53:00
2:06 AM,46.4,37.4,71,30.34,10.0,West,8.1,-,N/A,,Mostly Cloudy,270,2013-02-12 10:06:00
2:29 AM,46.4,37.4,71,30.33,10.0,Variable,3.5,-,N/A,,Scattered Clouds,0,2013-02-12 10:29:00
2:53 AM,46.0,39.0,76,30.33,10.0,WNW,10.4,-,N/A,,Clear,290,2013-02-12 10:53:00
3:53 AM,45.0,39.0,80,30.34,10.0,WNW,13.8,-,N/A,,Scattered Clouds,290,2013-02-12 11:53:00
4:53 AM,46.0,39.0,76,30.34,10.0,WNW,9.2,-,N/A,,Clear,290,2013-02-12 12:53:00
5:53 AM,45.0,39.0,80,30.35,10.0,West,5.8,-,N/A,,Scattered Clouds,270,2013-02-12 13:53:00
6:53 AM,46.0,39.0,76,30.36,10.0,Variable,3.5,-,N/A,,Partly Cloudy,0,2013-02-12 14:53:00
7:53 AM,46.9,39.9,77,30.38,10.0,NW,12.7,-,N/A,,Partly Cloudy,310,2013-02-12 15:53:00
8:53 AM,48.9,41.0,74,30.38,10.0,West,11.5,-,N/A,,Partly Cloudy,270,2013-02-12 16:53:00
9:53 AM,50.0,41.0,71,30.39,10.0,NW,12.7,-,N/A,,Scattered Clouds,310,2013-02-12 17:53:00
10:53 AM,51.1,41.0,68,30.39,10.0,West,8.1,-,N/A,,Mostly Cloudy,270,2013-02-12 18:53:00
11:08 AM,51.8,41.0,67,30.39,10.0,NW,8.1,-,N/A,,Overcast,310,2013-02-12 19:08:00
11:40 AM,53.6,42.8,67,30.39,10.0,WNW,11.5,17.3,N/A,,Overcast,290,2013-02-12 19:40:00
11:53 AM,54.0,42.1,64,30.38,10.0,WNW,15.0,-,N/A,,Overcast,290,2013-02-12 19:53:00
12:53 PM,55.0,41.0,59,30.37,10.0,NW,18.4,25.3,N/A,,Mostly Cloudy,310,2013-02-12 20:53:00
1:53 PM,55.0,39.9,57,30.36,10.0,NW,18.4,24.2,N/A,,Mostly Cloudy,310,2013-02-12 21:53:00
2:53 PM,54.0,39.9,59,30.36,10.0,WNW,12.7,-,N/A,,Clear,300,2013-02-12 22:53:00
3:53 PM,53.1,39.0,59,30.35,10.0,NW,18.4,24.2,N/A,,Clear,310,2013-02-12 23:53:00
4:53 PM,53.1,37.9,57,30.37,10.0,WNW,12.7,-,N/A,,Mostly Cloudy,290,2013-02-13 00:53:00
5:53 PM,48.9,39.0,69,30.35,10.0,NNW,6.9,-,N/A,,Partly Cloudy,340,2013-02-13 01:53:00
6:53 PM,51.1,39.9,66,30.36,10.0,NW,15.0,24.2,N/A,,Scattered Clouds,310,2013-02-13 02:53:00
7:53 PM,48.9,39.9,71,30.35,10.0,West,6.9,-,N/A,,Partly Cloudy,260,2013-02-13 03:53:00
8:53 PM,48.9,42.1,77,30.35,10.0,NW,16.1,-,N/A,,Partly Cloudy,310,2013-02-13 04:53:00
9:53 PM,50.0,42.1,74,30.35,10.0,NNW,15.0,-,N/A,,Mostly Cloudy,330,2013-02-13 05:53:00
10:53 PM,51.1,42.1,71,30.35,10.0,North,12.7,-,N/A,,Overcast,350,2013-02-13 06:53:00
11:53 PM,50.0,41.0,71,30.34,10.0,NNW,10.4,-,N/A,,Overcast,330,2013-02-13 07:53:00